TimeEST,TemperatureF,Dew PointF,Humidity,Sea Level PressureIn,VisibilityMPH,Wind Direction,Wind SpeedMPH,Gust SpeedMPH,PrecipitationIn,Events,Conditions,WindDirDegrees,DateUTC
12:39 AM,-9999,-9999,N/A,29.66,2.0,North,5.8,-,0.07,Rain,Light Rain,350,2013-02-27 05:39:00
12:54 AM,-9999,-9999,N/A,29.65,2.5,NE,10.4,-,0.08,Rain,Light Rain,40,2013-02-27 05:54:00
1:01 AM,-9999,-9999,N/A,29.65,4.0,ENE,6.9,-,0.01,Rain,Light Rain,60,2013-02-27 06:01:00
1:17 AM,-9999,-9999,N/A,29.64,2.5,ENE,8.1,-,0.01,,Overcast,70,2013-02-27 06:17:00
1:28 AM,-9999,-9999,N/A,29.63,5.0,ENE,11.5,20.7,0.02,Rain,Light Rain,60,2013-02-27 06:28:00
1:54 AM,-9999,-9999,N/A,29.62,4.0,ENE,16.1,-,0.02,Rain,Light Rain,60,2013-02-27 06:54:00
2:20 AM,-9999,-9999,N/A,29.59,4.0,ENE,15.0,-,0.01,Rain,Light Rain,70,2013-02-27 07:20:00
2:34 AM,-9999,-9999,N/A,29.58,2.5,ENE,12.7,-,0.02,Rain,Light Rain,70,2013-02-27 07:34:00
2:54 AM,-9999,-9999,N/A,29.56,3.0,East,9.2,-,0.02,Rain,Light Rain,80,2013-02-27 07:54:00
3:54 AM,-9999,-9999,N/A,29.54,3.0,ENE,5.8,-,0.02,,Overcast,70,2013-02-27 08:54:00
4:10 AM,-9999,-9999,N/A,29.52,2.5,East,9.2,-,N/A,,Overcast,80,2013-02-27 09:10:00
4:39 AM,-9999,-9999,N/A,29.51,1.5,East,8.1,-,N/A,,Overcast,90,2013-02-27 09:39:00
4:54 AM,-9999,-9999,N/A,29.51,1.2,ENE,6.9,-,N/A,,Overcast,70,2013-02-27 09:54:00
5:13 AM,-9999,-9999,N/A,29.50,0.8,East,6.9,-,N/A,,Overcast,80,2013-02-27 10:13:00
5:54 AM,-9999,-9999,N/A,29.50,0.5,East,3.5,-,N/A,Fog,Fog,80,2013-02-27 10:54:00
6:03 AM,-9999,-9999,N/A,29.49,0.2,East,3.5,-,N/A,Fog,Fog,90,2013-02-27 11:03:00
6:31 AM,-9999,-9999,N/A,29.49,0.5,East,3.5,-,N/A,Fog,Fog,100,2013-02-27 11:31:00
6:52 AM,-9999,-9999,N/A,29.49,0.2,Calm,Calm,-,N/A,Fog,Fog,0,2013-02-27 11:52:00
6:54 AM,-9999,-9999,N/A,29.49,0.2,Calm,Calm,-,N/A,Fog,Fog,0,2013-02-27 11:54:00
7:27 AM,-9999,-9999,N/A,29.50,0.5,Calm,Calm,-,0.01,Fog,Fog,0,2013-02-27 12:27:00
7:37 AM,-9999,-9999,N/A,29.50,2.0,Calm,Calm,-,0.01,,Overcast,0,2013-02-27 12:37:00
7:46 AM,-9999,-9999,N/A,29.51,4.0,Calm,Calm,-,0.01,,Haze,0,2013-02-27 12:46:00
7:54 AM,51.1,50.0,96,29.51,4.0,SSW,3.5,-,0.01,,Overcast,200,2013-02-27 12:54:00
8:50 AM,50.0,48.2,94,29.53,10.0,WSW,9.2,17.3,N/A,,Overcast,240,2013-02-27 13:50:00
8:54 AM,50.0,48.0,93,29.54,10.0,WSW,11.5,16.1,N/A,,Overcast,240,2013-02-27 13:54:00
9:54 AM,48.9,46.0,90,29.54,10.0,WSW,10.4,23.0,N/A,,Overcast,240,2013-02-27 14:54:00
10:54 AM,46.0,44.1,93,29.57,6.0,WSW,10.4,18.4,N/A,,Overcast,250,2013-02-27 15:54:00
11:54 AM,50.0,44.1,80,29.58,10.0,West,13.8,23.0,N/A,,Overcast,280,2013-02-27 16:54:00
12:05 PM,50.0,42.8,76,29.58,10.0,West,20.7,31.1,N/A,,Overcast,270,2013-02-27 17:05:00
12:54 PM,54.0,42.1,64,29.57,10.0,West,17.3,23.0,N/A,,Mostly Cloudy,280,2013-02-27 17:54:00
1:54 PM,54.0,39.0,57,29.59,10.0,WNW,15.0,21.9,N/A,,Mostly Cloudy,300,2013-02-27 18:54:00
2:54 PM,53.1,39.0,59,29.60,10.0,WNW,10.4,19.6,N/A,,Mostly Cloudy,300,2013-02-27 19:54:00
3:54 PM,55.9,37.9,51,29.62,10.0,WNW,10.4,-,N/A,,Mostly Cloudy,300,2013-02-27 20:54:00
4:54 PM,53.1,37.9,57,29.63,10.0,West,8.1,-,N/A,,Overcast,260,2013-02-27 21:54:00
5:54 PM,46.9,37.0,68,29.64,10.0,Calm,Calm,-,N/A,,Partly Cloudy,0,2013-02-27 22:54:00
6:54 PM,46.0,39.0,76,29.67,10.0,Calm,Calm,-,N/A,,Overcast,0,2013-02-27 23:54:00
7:54 PM,45.0,39.9,82,29.67,10.0,Calm,Calm,-,N/A,,Overcast,0,2013-02-28 00:54:00
9:54 PM,46.9,35.1,63,29.68,10.0,West,4.6,-,N/A,,Overcast,260,2013-02-28 02:54:00
10:54 PM,44.1,37.0,76,29.67,10.0,Calm,Calm,-,N/A,,Overcast,0,2013-02-28 03:54:00
11:54 PM,43.0,37.9,82,29.65,10.0,Calm,Calm,-,N/A,,Overcast,0,2013-02-28 04:54:00